Agen Judi Casino dan Taruhan Bola Online Terbesar

Jackpot

Texas Poker Multi Jackpot System

Kini Telah hadir Jackpot SUPER ROYAL FLUSH

Kini Telah hadir Jackpot 2000 (khusus table VIP keatas).

Ikutilah global jackpot yang tersedia di system kami, dengan system jackpot terbaru dan pertama di indonesia, anda dapat membeli jackpot dengan harga 100 rupiah saja dan menangkan hadiahnya hingga puluhan juta rupiah.

Jackpot bukanlah suatu keharusan untuk dibeli, namun kami memberikan suatu fitur tambahan untuk member tercinta dari www.asiapoker303.net.

Terdapat tiga pilihan harga jackpot yang bisa anda beli yaitu :100,500,1000 dan 2000(khusus table VIP Keatas) rupiah.

Hadiah dari Multi jackpot system www.asiapoker303.net

  1. full house x 10 harga jackpot yang anda beli.
      (contoh:anda membeli 1000 maka:1000 X10 = 10.000)
  2. four of kind x 250 harga jackpot yang anda beli
      (contoh:anda membeli 1000 maka:1000 X250 = 250.000)
  3. Straight flush x 1200
      (contoh:anda membeli 1000 maka:1000 X1200 = 1.200.000)
  4. Royal flush x 10000 harga jackpot yang anda beli
      (contoh:anda membeli 1000 maka:1000 X10000 = 10.000.000)
  5. SUPER ROYAL FLUSH x 30000 harga jackpot yang anda beli
      (contoh:anda membeli 1000 maka:1000 X30000 = 30.000.000)

Kondisi kartu

  1. full house adalah kondisi kartu dimana kartu anda dan kartu tengah dengan total 7 kartu bisa mendapatkan nilai 5 kartu dengan kombinasi 1 tris(three of kind) dan 1 pair, contoh 3 kartu 10 dan 2 kartu 5
  2. Four of kind adalah kondisi kartu dimana kartu anda dan kartu tengah dengan total 7 kartu bisa mendapatkan nilai 5 kartu dengan kombinasi 4 kartu yang sama jumlah dan 1 kartu apapun juga contoh anda mendapatkan 4 buah kartu angka 3 dan 1 kartu apapun.
  3. Staright flush adalah kondisi kartu dimana kartu anda dan kartu tengah dengan total 7 kartu bisa mendapatkan nilai 5 kartu dengan kombinasi seri / staright dengan kembang yang sama contoh : urutan kartu dari angka 5, 6, 7, 8 , 9 10 dengan kembang yg sama misalnya as hati
  4. Royal flush adalah kondisi kartu dimana kartu anda dan kartu tengah dengan total 7 kartu bisa mendapatkan nilai 5 kartu dengan kombinasi seri / staright dengan kembang yang sama tetapi kartu tersebut haruslah dimulai dari 10. contoh 10, Queen, Jack, King dan aces dengan kembang yang sama
  5. Super Royal flush adalah kondisi kartu dimana Kedua kartu anda digabung dengan 3 kartu pertama meja haruslah royal flush. contoh kartu anda 10,Queen kembang sama dan 3 kartu pertama meja adalah Jack, King dan aces dengan kembang yang sama

Demikian adalah penjelasan dari Multi Jackpot www.asiapoker303.net terima kasih dan selamat bermain salam hoki dari kami

Texas Poker Jackpot Winner

TOP SUPER ROYAL FLUSH
No.TanggalNamaPriceWin
127/04 00:59TYSON15Super Royal flush3,000,000
227/04 00:05RIDHO2998Super Royal flush15,000,000
326/04 22:34WEXEL02Super Royal flush15,000,000
426/04 22:15WEDOL86Super Royal flush15,000,000
526/04 21:05UMA990Super Royal flush15,000,000
TOP ROYAL FLUSH
No.TanggalNamaPriceWin
127/04 03:23AMIR3346Royal flush20,000,000
227/04 03:20D3W4MELEANRoyal flush5,000,000
327/04 03:17SKY449Royal flush2,000,000
427/04 03:06ODRI346Royal flush5,000,000
527/04 02:59CAMPTO26Royal flush20,000,000
TOP STRAIGHT FLUSH
No.TanggalNamaPriceWin
127/04 03:33TROBOS00Straight Flush240,000
227/04 03:33WURI99Straight Flush120,000
327/04 03:33ATOM85Straight Flush600,000
427/04 03:32HJBS1234Straight Flush120,000
527/04 03:32RAHMA1404Straight Flush1,200,000
LATEST JACKPOT
No.TanggalNamaPriceWin
127/04 03:34THERONGZFull House10,000
227/04 03:34JALUPHASE2Full House2,000
327/04 03:34TAMSKWFull House5,000
427/04 03:34TRTPALTIFull House5,000
527/04 03:34C9403722Full House5,000
627/04 03:34LK4DFAUZI88Full House5,000
727/04 03:34WINJPSTRFull House1,000
827/04 03:34SXWD5IFIX8Four Of A Kind50,000
927/04 03:34R8CATCZB0UFull House2,000
1027/04 03:34CIAK11Full House2,000
1127/04 03:34HADLEY00Full House10,000
1227/04 03:34G_RFull House20,000
1327/04 03:34FELA9999Full House2,000
1427/04 03:34VE4LW9Z9ETFull House1,000
1527/04 03:34SENSEN2323Full House10,000
1627/04 03:34UNBROKENFull House5,000
1727/04 03:34MUNCRATTTFull House2,000
1827/04 03:34EN53TFull House2,000
1927/04 03:34WWWDD1Four Of A Kind50,000
2027/04 03:34GALUH378Full House2,000
2127/04 03:34G0JOLFull House2,000
2227/04 03:34B14890343Full House5,000
2327/04 03:34ANOM1992Full House5,000
2427/04 03:34YQS1F1TTFDFull House5,000
2527/04 03:34AGUSETETFull House5,000
2627/04 03:34ULARGANASFull House2,000
2727/04 03:34PAO121Full House2,000
2827/04 03:34JULIUSJJJFour Of A Kind50,000
2927/04 03:34BEDOLBAEFull House10,000
3027/04 03:34PISCESMAXFull House5,000
3127/04 03:34MV548642Full House1,000
3227/04 03:34MRS_N1C3Full House2,000
3327/04 03:34SIPAND3RFull House5,000
3427/04 03:34REZA12346Full House500
3527/04 03:34DOMINO_GOSFull House10,000
3627/04 03:34PKL86Full House5,000
3727/04 03:34KELAM888Full House2,000
3827/04 03:34MOTMOT678Full House1,000
3927/04 03:34C4NTH4TFull House2,000
4027/04 03:34P5Y1KUGXOKFull House5,000
4127/04 03:34GOJEK1976Full House5,000
4227/04 03:34GARLIC28Full House20,000
4327/04 03:34AJISUREFour Of A Kind25,000
4427/04 03:34TEMPEK221Full House10,000
4527/04 03:34EC60FC0BFull House2,000
4627/04 03:34N1CE99Full House5,000
4727/04 03:34SEAWOLF99Full House2,000
4827/04 03:34ANG9IFull House1,000
4927/04 03:34RLOVETFour Of A Kind50,000
5027/04 03:33SENSEN2323Full House10,000

Domino Multi Jackpot System

Ikutilah global jackpot yang tersedia di system kami, dengan system jackpot terbaru dan pertama di indonesia, anda dapat membeli jackpot dengan harga 100 rupiah saja dan menangkan hadiahnya hingga puluhan juta rupiah.

Jackpot bukanlah suatu keharusan untuk dibeli, namun kami memberikan suatu fitur tambahan untuk member tercinta dari www.asiapoker303.net.

Terdapat tiga pilihan harga jackpot yang bisa anda beli yaitu :100,500 dan 1000 rupiah.

Hadiah dari Multi jackpot system www.asiapoker303.net

  1. Murni Kecil x 50 harga jackpot yang anda beli.
      (contoh:anda membeli 1000 maka:1000 X 50 = 50.000)
  2. Murni Besar x 50 harga jackpot yang anda beli
      (contoh:anda membeli 1000 maka:1000 X 50 = 50.000)
  3. BALAK x 100 harga jackpot yang anda beli
      (contoh:anda membeli 1000 maka:1000 X 100 = 100.000)
  4. ENAM DEWA x 6666 harga jackpot yang anda beli
      (contoh:anda membeli 1000 maka:1000 X 6666 = 6.666.000)

Demikian adalah penjelasan dari Multi Jackpot www.asiapoker303.net terima kasih dan selamat bermain salam hoki dari kami

Domino Jackpot Winner

TOP ENAM DEWA
No.TanggalNamaPriceWin
127/04 01:40TIRTOKmurni enam6,666,000
226/04 19:37RUFI123murni enam666,600
326/04 19:32JAMPERAN_murni enam6,666,000
426/04 18:39CALIAO83murni enam6,666,000
526/04 16:38PROV1987murni enam6,666,000
TOP BALAK
No.TanggalNamaPriceWin
127/04 03:24RIMAU_99balak10,000
227/04 03:17IW4N78balak100,000
327/04 03:16NGOWOHbalak100,000
427/04 03:10MOURINHO91balak100,000
527/04 03:08SCOTEKNG1balak50,000
LATEST JACKPOT
No.TanggalNamaPriceWin
127/04 03:34WDT23murni kecil50,000
227/04 03:34MAZDIKA92murni kecil25,000
327/04 03:33VEGER23murni kecil50,000
427/04 03:32KERONTANmurni kecil5,000
527/04 03:32HENGKI005murni besar50,000
627/04 03:32AALNACAA6murni kecil25,000
727/04 03:31MGSO21murni besar50,000
827/04 03:31BOCIL130murni kecil50,000
927/04 03:30ADHIRAH_69murni besar5,000
1027/04 03:29ABDULLAHCCmurni besar50,000
1127/04 03:29QBE77murni besar50,000
1227/04 03:28BUGIL0murni kecil5,000
1327/04 03:27S44BAR_69murni besar50,000
1427/04 03:27HK4DMISTIYAHlucky9910,000
1527/04 03:26DANHEND99murni besar50,000
1627/04 03:26E41410B3murni besar50,000
1727/04 03:25AGSANDIlucky9910,000
1827/04 03:24CALIAO83murni kecil50,000
1927/04 03:24RIMAU_99balak10,000
2027/04 03:23MAPENDOZ87murni kecil25,000
2127/04 03:22BH151PPmurni besar50,000
2227/04 03:22BAYON018murni kecil5,000
2327/04 03:21GUN86TARAmurni besar25,000
2427/04 03:21JI3NK94murni besar25,000
2527/04 03:21SAVAGE18DJmurni besar5,000
2627/04 03:21JPMEN8murni kecil5,000
2727/04 03:21ESRHYmurni besar5,000
2827/04 03:21JIE21murni besar25,000
2927/04 03:20GOLSSOMmurni besar50,000
3027/04 03:20PRISON14murni besar50,000
3127/04 03:19FERDYANSmurni kecil5,000
3227/04 03:19CALIAO83murni kecil50,000
3327/04 03:18CHAM_PLONXmurni besar25,000
3427/04 03:17IW4N78balak100,000
3527/04 03:16SANUSI777murni besar50,000
3627/04 03:16NGOWOHbalak100,000
3727/04 03:16MYXPRESImurni kecil25,000
3827/04 03:15FERDYANSmurni besar5,000
3927/04 03:14SOEX46murni kecil50,000
4027/04 03:14JI3NK94murni kecil25,000
4127/04 03:12BABA421murni kecil50,000
4227/04 03:11GILAQIUQIUmurni kecil50,000
4327/04 03:11NIKAHAKADmurni kecil25,000
4427/04 03:10MOURINHO91balak100,000
4527/04 03:10KFMU42MIVYmurni kecil50,000
4627/04 03:09NAIRA2014murni kecil50,000
4727/04 03:09KICHI69murni kecil25,000
4827/04 03:08SCOTEKNG1balak50,000
4927/04 03:07JI3NK94balak50,000
5027/04 03:07DANHEND99murni besar50,000

Ceme Multi Jackpot System

Jackpot dilihat dari gabungan kartu pemain dengan kartu bandar. Bandar harus membeli jackpot sebanyak jumlah player yang sedang duduk. Sebagai contoh bila terdapat 3 pemain duduk bermain, dan bandar memutuskan untuk membeli jackpot Rp 1.000, maka pada periode tersebut bandar akan membeli jackpot sebanyak 3xRp1.000 = Rp3.000.

Jackpot bukanlah suatu keharusan untuk dibeli, namun kami memberikan suatu fitur tambahan untuk member tercinta dari www.asiapoker303.net.

Terdapat tiga pilihan harga jackpot yang bisa anda beli yaitu :100,500 dan 1000 rupiah.

Hadiah dari Multi jackpot system www.asiapoker303.net

  1. Murni Kecil x 50 harga jackpot yang anda beli.
      (contoh:anda membeli 1000 maka:1000 X 50 = 50.000)
  2. Murni Besar x 50 harga jackpot yang anda beli
      (contoh:anda membeli 1000 maka:1000 X 50 = 50.000)
  3. BALAK x 200 harga jackpot yang anda beli
      (contoh:anda membeli 1000 maka:1000 X 200 = 200.000)
  4. ENAM DEWA x 6666 harga jackpot yang anda beli
      (contoh:anda membeli 1000 maka:1000 X 6666 = 6.666.000)

Demikian adalah penjelasan dari Multi Jackpot www.asiapoker303.net terima kasih dan selamat bermain salam hoki dari kami

Ceme Jackpot Winner

TOP ENAM DEWA
No.TanggalNamaPriceWin
127/04 03:25AAAALDJE44murni enam6,666,000
227/04 03:25VIYONKTMmurni enam6,666,000
327/04 03:24ERIKEMRIKOmurni enam6,666,000
427/04 03:24SAADAH22murni enam6,666,000
527/04 03:21MK_12345murni enam6,666,000
TOP BALAK
No.TanggalNamaPriceWin
127/04 03:34ZAHRA_HLbalak200,000
227/04 03:33RIOSIMONbalak200,000
327/04 03:33SEFTIANLUXbalak200,000
427/04 03:33Y83D75QCMXbalak100,000
527/04 03:33SUT_DAY2balak100,000
LATEST JACKPOT
No.TanggalNamaPriceWin
127/04 03:34ZAHRA_HLbalak200,000
227/04 03:34DISUR38murni kecil50,000
327/04 03:34SLANKPEACEmurni kecil50,000
427/04 03:34RIWOZmurni kecil5,000
527/04 03:34AYAY699murni kecil5,000
627/04 03:34PLOLO99murni kecil25,000
727/04 03:34PANJOL_878murni kecil25,000
827/04 03:34JUANDASYAHmurni kecil50,000
927/04 03:34RIWOZmurni besar5,000
1027/04 03:33ERIKEMRIKOmurni kecil50,000
1127/04 03:33VIT0708murni kecil25,000
1227/04 03:33RIOSIMONbalak200,000
1327/04 03:33SEFTIANLUXbalak200,000
1427/04 03:33Y83D75QCMXbalak100,000
1527/04 03:33SUT_DAY2balak100,000
1627/04 03:33BOBY_SFMmurni besar50,000
1727/04 03:33BP881239murni besar50,000
1827/04 03:33JARWIS66murni besar25,000
1927/04 03:33A2A9C45Fmurni kecil50,000
2027/04 03:33TURENOmurni kecil25,000
2127/04 03:33BP885656murni kecil50,000
2227/04 03:33CEURAPE87murni kecil5,000
2327/04 03:33DISUR38murni besar50,000
2427/04 03:33GATAN55murni besar50,000
2527/04 03:33YD50TO7QTBbalak100,000
2627/04 03:33JELITAAAAmurni kecil50,000
2727/04 03:33MUSING66murni kecil50,000
2827/04 03:33JUNA156balak20,000
2927/04 03:33P0KER15murni kecil25,000
3027/04 03:32ROOMSI99balak200,000
3127/04 03:32MARCELOSmurni besar50,000
3227/04 03:32ERIKEMRIKObalak200,000
3327/04 03:32YUOYO12murni besar25,000
3427/04 03:32L4P0K_10murni besar50,000
3527/04 03:32NICHA37murni kecil50,000
3627/04 03:32KINGCEME9balak200,000
3727/04 03:32OLIL1112murni besar50,000
3827/04 03:32DONIE880murni besar50,000
3927/04 03:32P0KER15murni kecil25,000
4027/04 03:32STEVEJOKERbalak200,000
4127/04 03:32BALONAYONKmurni kecil5,000
4227/04 03:31NARIS88murni kecil50,000
4327/04 03:31KIIPUTIHmurni kecil50,000
4427/04 03:31PLJ02107murni besar50,000
4527/04 03:31MALANK09murni besar50,000
4627/04 03:31OCU82murni kecil25,000
4727/04 03:31MFC24THmurni kecil25,000
4827/04 03:31P0KER15murni kecil25,000
4927/04 03:31HOKICEPRIN197murni kecil25,000
5027/04 03:31PLOLO99balak100,000